This demonstration page uses our WeatherBlox Daily Observations layout. Learn more.

Left ArrowRight Arrow

30.21309, -93.2044

Hourly Observations for July 3, 2019

Temp ( °F °C ) Dew Point ( °F °C ) Humidity (%) Winds ( mph kmh ) Pressure ( in mb ) Visibility ( mi km ) Precip ( " mm )
12:15 am 00:15 Clear 76 24.7 75 23.9 95 95 Calm 29.96 1015 10 16 0.00 0.00
12:35 am 00:35 Clear 76 24.5 75 23.7 95 95 Calm 29.97 1015 10 16 0.00 0.00
12:55 am 00:55 Clear 76 24.2 74 23.6 96 96 SE 5 7 29.97 1015 10 16 0.01 0.25
1:15 am 01:15 Partly Cloudy 75 24.1 75 23.7 98 98 Calm 29.97 1015 10 16 0.00 0.00
1:35 am 01:35 Partly Cloudy 75 24 74 23.6 98 98 SE 3 6 29.97 1015 10 16 0.00 0.00
1:55 am 01:55 Partly Cloudy 76 24.5 75 24.1 98 98 Calm 29.97 1015 10 16 0.00 0.00
2:15 am 02:15 Clear 76 24.7 76 24.2 97 97 SE 5 7 29.96 1015 10 16 0.00 0.00
2:35 am 02:35 Clear 76 24.5 75 24 97 97 ESE 3 6 29.96 1015 10 16 0.00 0.00
2:55 am 02:55 Clear 76 24.5 75 24.1 98 98 Calm 29.96 1015 10 16 0.01 0.25
3:15 am 03:15 Mostly Cloudy 77 24.8 76 24.2 96 96 E 5 7 29.97 1015 10 16 0.00 0.00
3:35 am 03:35 Partly Cloudy 77 24.9 76 24.4 97 97 Calm 29.97 1015 10 16 0.00 0.00
3:55 am 03:55 Clear 77 24.8 76 24.3 97 97 E 3 6 29.97 1015 10 16 0.00 0.00
4:15 am 04:15 Clear 76 24.5 75 24.1 98 98 Calm 29.97 1015 10 16 0.00 0.00
4:35 am 04:35 Clear 76 24.6 76 24.2 98 98 Calm 29.97 1015 10 16 0.00 0.00
4:55 am 04:55 Clear 76 24.7 76 24.2 97 97 Calm 29.97 1015 10 16 0.00 0.00
5:15 am 05:15 Clear 76 24.6 75 24.1 97 97 E 3 6 29.97 1015 10 16 0.00 0.00
5:35 am 05:35 Clear 76 24.6 76 24.2 98 98 ENE 3 6 29.98 1015 10 16 0.00 0.00
6:00 am 06:00 Mostly Cloudy 77 25 75 24 94 94 Calm 29.99 1016 10 16 0.00 0.00
6:55 am 06:55 Mostly Cloudy 75 24 75 24 100 100 Calm 29.99 1016 10 16 0.00 0.00
7:55 am 07:55 Partly Cloudy 79 26 72 22 79 79 E 8 13 30.01 1016 10 16 0.00 0.00
8:55 am 08:55 Mostly Cloudy 81 27 77 25 89 89 ESE 6 9 30.03 1017 10 16 0.00 0.00
9:55 am 09:55 Mostly Cloudy 81 27 77 25 89 89 ESE 3 6 30.04 1017 10 16 0.00 0.00
10:45 am 10:45 Mostly Cloudy 82 28 77 25 84 84 SE 6 9 30.02 1017 10 16 0.00 0.00
11:45 am 11:45 Mostly Cloudy 84 29 77 25 79 79 ESE 6 9 30.03 1017 7 11 0.00 0.00
12:50 pm 12:50 Mostly Cloudy 86 30 77 25 75 75 SE 7 11 30.02 1017 7 11 0.00 0.00
1:55 pm 13:55 Mostly Cloudy with Thunderstorms 86 30 75 24 70 70 SSW 8 13 30.01 1016 7 11 0.00 0.00
2:55 pm 14:55 Mostly Cloudy 79 26 72 22 79 79 W 12 19 30.00 1016 7 11 0.00 0.00
3:55 pm 15:55 Mostly Cloudy 79 26 72 22 79 79 W 12 19 30.00 1016 7 11 0.00 0.00
4:50 pm 16:50 Mostly Cloudy 84 29 75 24 74 74 VRB 7 11 29.97 1015 10 16 0.00 0.00
5:55 pm 17:55 Mostly Cloudy 81 27 75 24 84 84 VRB 7 11 29.97 1015 10 16 0.00 0.00
9:50 pm 21:50 Mostly Cloudy 79 26 75 24 89 89 E 3 6 29.96 1015 10 16 0.00 0.00
10:15 pm 22:15 Partly Cloudy 77 25.2 76 24.2 94 94 E 3 6 29.97 1015 10 16 0.00 0.00
10:35 pm 22:35 Clear 77 25 76 24.2 95 95 ESE 5 7 29.96 1015 10 16 0.00 0.00
10:55 pm 22:55 Clear 77 25.2 76 24.5 96 96 E 3 6 29.97 1015 10 16 0.00 0.00
11:15 pm 23:15 Clear 77 25.1 76 24.5 96 96 E 3 6 29.98 1015 10 16 0.00 0.00
11:35 pm 23:35 Clear 77 25 76 24.5 97 97 Calm 29.99 1016 10 16 0.00 0.00
11:55 pm 23:55 Clear 77 25 76 24.4 96 96 Calm 29.99 1016 10 16 0.00 0.00

Powered by AerisWeather